This is the latest recevied weather packets stored in our database for station/object KP4CRN. If no packets are shown the sender has not sent any weather packets the latest 10 day(s).
| Time | Temp. | Humidity | Pressure | Rain* | Wind** | Luminosity | Snow |
|---|---|---|---|---|---|---|---|
| 1777551933 | 27.22° C | 87% | 1014.2 hPa | 0 mm | - | 201 W/m² | - |
| 1777551631 | 27.22° C | 88% | 1014.3 hPa | 0 mm | - | 191 W/m² | - |
| 1777551328 | 26.67° C | 89% | 1014.2 hPa | 0 mm | - | 194 W/m² | - |
| 1777551024 | 26.67° C | 89% | 1014 hPa | 0 mm | - | 190 W/m² | - |
| 1777550721 | 26.67° C | 90% | 1014.1 hPa | 0 mm | - | 183 W/m² | - |
| 1777550412 | 26.67° C | 90% | 1014.2 hPa | 0 mm | - | 175 W/m² | - |
| 1777550109 | 26.67° C | 90% | 1014.2 hPa | 0 mm | - | 166 W/m² | - |
| 1777549805 | 26.11° C | 91% | 1014 hPa | 0 mm | - | 158 W/m² | - |
| 1777549501 | 26.11° C | 92% | 1014 hPa | 0 mm | - | 133 W/m² | - |
| 1777549197 | 26.11° C | 92% | 1014.1 hPa | 0 mm | - | 119 W/m² | - |
| 1777548894 | 26.11° C | 92% | 1014 hPa | 0 mm | - | 120 W/m² | - |
| 1777548590 | 25.56° C | 93% | 1013.9 hPa | 0 mm | - | 115 W/m² | - |
| 1777548287 | 25.56° C | 93% | 1013.8 hPa | 0 mm | - | 95 W/m² | - |
| 1777547984 | 25.56° C | 94% | 1013.6 hPa | 0 mm | - | 77 W/m² | - |
| 1777547680 | 25.56° C | 94% | 1013.7 hPa | 0 mm | - | 81 W/m² | - |
| 1777547377 | 25.56° C | 94% | 1013.6 hPa | 0 mm | - | 79 W/m² | - |
| 1777547075 | 25.56° C | 94% | 1013.5 hPa | 0 mm | - | 72 W/m² | - |
| 1777546772 | 25° C | 95% | 1013.4 hPa | 0 mm | - | 69 W/m² | - |
| 1777546469 | 25° C | 95% | 1013.7 hPa | 0 mm | - | 68 W/m² | - |
| 1777546165 | 25° C | 96% | 1013.5 hPa | 0 mm | - | 58 W/m² | - |
| 1777545861 | 25° C | 96% | 1013.4 hPa | 0 mm | - | 41 W/m² | - |
| 1777545559 | 25° C | 96% | 1013.3 hPa | 0 mm | - | 30 W/m² | - |
| 1777545255 | 24.44° C | 97% | 1013.1 hPa | 0 mm | - | 24 W/m² | - |
| 1777544953 | 24.44° C | 97% | 1013 hPa | 0 mm | - | 20 W/m² | - |
| 1777544649 | 24.44° C | 97% | 1013.1 hPa | 0 mm | - | 13 W/m² | - |
* Rain latest hour (hover to see other rain measurements)
** Current wind speed in m/s (hover to see current wind gust speed)